{"data":{"norad_id":62033,"intl_designator":"2024-216B","name":"STARLINK-32582","alt_names":[],"object_type":"PAYLOAD","status":"ACTIVE","operator":null,"country":"US","launch_date":"2024-11-21","launch_site_code":"AFETR","launch_vehicle":null,"mission":null,"orbit_class":"UNKNOWN","rcs_meters":null,"size_class":null,"mass_kg":null,"dimensions":null,"purposes":["comms"],"wikipedia_slug":null,"has_3d_model":false,"image_url":null,"decayed_at":null,"tle_current":{"epoch":"2026-09-21T15:30:41.474304Z","epoch_age_seconds":86465,"freshness":"FRESH","line1":"1 62033U 24216B   26264.64631336  .00009787  00000+0  36465-3 0  9998","line2":"2 62033  43.0021 236.6779 0001364 274.0820  85.9876 15.27584268103761","mean_motion":15.27584268,"eccentricity":0.0001364,"inclination_deg":43.0021,"raan_deg":236.6779,"arg_perigee_deg":274.082,"mean_anomaly_deg":85.9876,"bstar":0.00036465,"rev_number":10376,"period_min":94.266485336703,"perigee_km":482.10045210168,"apogee_km":483.97218018233,"semimajor_km":6861.173316142,"source":"CELESTRAK","updated_at":"2026-09-22T09:00:49.486408Z"}}}